Location: Newark
(44.9684°N, 1.0319°E)
Time: 02:31:58
(UTC+00:00)

Falcon 9 debris - Visible Passes

Search period start: 15 October 2019 00:00
Search period end: 25 October 2019 00:00
Orbit: 431 x 438 km, 53.0° (Epoch: 13 October)

Date Brightness Start Highest point End Pass type
(mag) Time Alt. Az. Time Alt. Az. Time Alt. Az.
15 Oct 5.0 18:02:22 10° NW 18:05:04 21° N 18:07:41 11° NE visible
15 Oct 5.6 19:39:38 10° NW 19:40:57 19° NNW 19:40:57 19° NNW visible
16 Oct 4.5 18:57:05 10° NW 18:59:57 27° N 18:59:57 27° N visible
17 Oct 4.7 18:14:30 10° NW 18:17:23 24° NNE 18:18:58 18° NE visible
17 Oct 6.0 19:51:23 10° NW 19:52:14 17° NW 19:52:14 17° NW visible
18 Oct 4.2 19:08:50 10° NW 19:11:18 39° NNW 19:11:18 39° NNW visible
19 Oct 3.8 18:26:17 10° NW 18:29:34 40° NNE 18:30:25 33° ENE visible
19 Oct 6.5 20:03:22 10° WNW 20:03:42 12° WNW 20:03:42 12° WNW visible
20 Oct 4.2 17:43:43 10° NW 17:46:52 32° NNE 17:49:36 12° E visible
20 Oct 4.7 19:20:39 10° WNW 19:22:53 35° W 19:22:53 35° W visible
21 Oct 3.1 18:38:00 10° WNW 18:41:28 82° SW 18:42:10 54° SE visible
22 Oct 3.1 17:55:25 10° NW 17:58:51 70° NNE 18:01:33 15° ESE visible
22 Oct 5.8 19:33:10 10° W 19:34:51 17° WSW 19:34:51 17° WSW visible
23 Oct 5.1 18:50:09 10° WNW 18:53:03 26° SW 18:54:24 20° S visible
24 Oct 4.5 18:07:19 10° WNW 18:10:33 38° SW 18:13:46 10° SSE visible
